Lakewood, Ohio, United States (44107)
Lat: 41.48N, Lon: 81.8W
Wx Zone: OHZ011
Local Info
Past Weather Observations for Today

NOTE: This archive is for the closest National Weather Service station to Lakewood. Information may differ from the station used for current weather conditions.

Click here for Long-term Archive

Time Weather Temperature Dewpoint Humidity Pressure Winds Precip Visibility
18:51
Overcast
73°F / 23°C 64°F / 18°C 74% 30.12 in
(1020 mb)
S 5.8 mph
(S 9 kph)
- 10SM
17:51
Overcast
73°F / 23°C 66°F / 19°C 78% 30.09 in
(1019 mb)
WNW 8.1 mph
(WNW 13 kph)
0.01 in
(0.25 mm)
10SM
17:23
Overcast
77°F / 25°C 64°F / 18°C 65% 30.09 in
(1019 mb)
WNW 18.4 mph
(WNW 30 kph)
- 10SM
16:51
Mostly Cloudy
82°F / 28°C 64°F / 18°C 55% 30.06 in
(1018 mb)
NW 8.1 mph
(NW 13 kph)
- 10SM
15:51
Partly Cloudy
88°F / 31°C 63°F / 17°C 43% 30.06 in
(1018 mb)
SSE 9.2 mph
(SSE 15 kph)
- 10SM
14:51
Partly Cloudy
88°F / 31°C 66°F / 19°C 49% 30.06 in
(1018 mb)
S 9.2 mph
(S 15 kph)
- 10SM
13:51
Partly Cloudy
88°F / 31°C 66°F / 19°C 49% 30.06 in
(1018 mb)
S 9.2 mph
(S 15 kph)
- 10SM
12:51
Partly Cloudy
86°F / 30°C 66°F / 19°C 52% 30.09 in
(1019 mb)
S 11.5 mph
(S 19 kph)
- 10SM
11:51
Overcast
82°F / 28°C 64°F / 18°C 55% 30.12 in
(1020 mb)
SSE 9.2 mph
(SSE 15 kph)
- 10SM
10:51
Overcast
81°F / 27°C 66°F / 19°C 62% 30.12 in
(1020 mb)
SSE 6.9 mph
(SSE 11 kph)
- 10SM
09:51
Overcast
79°F / 26°C 66°F / 19°C 65% 30.12 in
(1020 mb)
SW 8.1 mph
(SW 13 kph)
- 10SM
08:51
Mostly Cloudy
81°F / 27°C 66°F / 19°C 62% 30.09 in
(1019 mb)
SW 9.2 mph
(SW 15 kph)
- 10SM
07:51
Partly Cloudy
81°F / 27°C 66°F / 19°C 62% 30.09 in
(1019 mb)
S 5.8 mph
(S 9 kph)
- 10SM
06:51
Mostly Cloudy
75°F / 24°C 64°F / 18°C 69% 30.09 in
(1019 mb)
SSE 9.2 mph
(SSE 15 kph)
- 10SM
05:51
Mostly Cloudy
72°F / 22°C 64°F / 18°C 78% 30.09 in
(1019 mb)
SSE 5.8 mph
(SSE 9 kph)
- 10SM
04:51
Mostly Cloudy
70°F / 21°C 63°F / 17°C 78% 30.06 in
(1018 mb)
S 6.9 mph
(S 11 kph)
- 10SM
03:51
Clear
73°F / 23°C 63°F / 17°C 69% 30.06 in
(1018 mb)
S 9.2 mph
(S 15 kph)
- 10SM
02:51
Clear
73°F / 23°C 63°F / 17°C 69% 30.06 in
(1018 mb)
S 9.2 mph
(S 15 kph)
- 10SM
01:51
Clear
75°F / 24°C 63°F / 17°C 65% 30.06 in
(1018 mb)
SSE 10.4 mph
(SSE 17 kph)
- 10SM
00:51
Clear
79°F / 26°C 63°F / 17°C 58% 30.06 in
(1018 mb)
S 10.4 mph
(S 17 kph)
- 10SM
Time Weather Temperature Dewpoint Humidity Pressure Winds Precip Visibility


Weather for websites

WeatherForYou.com, LLC is not responsible for any damages or problems caused by this service. Current weather conditions are obtained from the closest station including government and personal stations which may have varying degrees of accuracy. Weather forecasts are derived from the NOAA NDFD. Like all things, this site belongs to Jesus Christ... He just trusts us to maintain it. If you have any questions or comments email webmaster@weatherforyou.com

Copyright © 2016, WeatherForYou.com LLC. All rights reserved.